Temperature
24 23 22 21 21 20 20 19 19 19 19 19 18 18 19 19 18 18 18 18 18 18 18 18 18 18 18 18 18 18 18 18 18 18 18 18 18 18 18 18 18 18 18
24 23 22 21 21 20 20 19 19 19 19 19 19 19 19 19 18 18 18 18 18 18 18 18 18 18 18 18 18 18 18 18 18 18 18 18 18 18 18 18 18 18 18
24 23 22 22 21 20 20 19 19 19 19 19 18 18 18 18 18 18 18 18 18 18 18 18 18 18 18 18 18 18 18 18 18 18 18 18 18 18 18 18 18 18 18
25 24 23 22 21 21 20 20 19 19 19 19 18 18 18 18 18 18 18 18 18 18 18 18 18 18 18 18 18 18 18 18 18 18 18 18 18 17 17 18 18 18 18
25 24 23 22 21 21 20 20 19 19 19 19 18 18 18 18 18 18 18 18 18 18 18 18 18 18 18 18 18 18 18 18 18 18 18 18 18 18 17 17 17 17 17
25 24 23 22 21 21 20 20 19 19 19 19 18 18 18 18 18 18 18 18 18 18 18 18 18 18 18 18 18 18 18 18 18 18 18 18 17 18 17 17 17 17 17
25 24 23 22 21 21 20 20 19 19 19 19 18 18 18 18 18 18 18 18 18 18 18 18 18 18 18 18 18 18 17 17 17 17 17 17 17 17 17 17 17 17 17
25 24 23 22 21 20 20 19 19 19 19 19 19 18 18 18 18 18 18 17 18 18 18 18 17 17 17 17 17 17 17 17 17 17 17 17 17 17 17 17 17 17 17
25 24 23 22 21 20 20 19 19 19 19 18 18 18 18 18 18 17 17 17 17 17 17 17 17 17 17 17 17 17 17 17 17 17 17 17 17 17 17 17 17 17 16
25 24 23 22 21 20 20 19 19 19 18 18 18 18 18 17 17 17 17 17 17 17 17 17 17 17 17 17 17 17 17 17 17 17 17 17 17 17 17 17 16 16 16
25 24 23 22 21 21 20 19 19 19 18 18 18 18 17 17 17 17 17 17 17 17 17 17 16 16 16 16 16 16 16 16 16 16 16 16 16 16 16 16 16 16 16
25 24 23 22 21 21 20 19 19 18 18 18 18 17 17 17 17 17 17 17 17 17 17 16 16 16 16 16 16 16 16 16 16 16 16 16 16 16 16 16 16 16 16
24 23 23 22 21 20 19 19 19 18 18 18 18 17 17 17 17 16 16 16 16 16 16 16 16 16 16 16 16 16 15 15 15 15 15 15 15 15 15 15 15 15 15
24 23 22 21 20 20 19 19 18 18 18 17 17 17 17 16 16 16 16 16 16 16 16 16 16 16 16 16 15 15 15 15 15 15 15 15 15 15 15 15 15 15 15
23 22 22 21 20 19 19 18 18 18 17 17 17 16 16 16 16 16 16 16 16 16 16 16 16 15 15 15 15 15 15 15 15 15 14 14 14 14 14 14 14 14 15
23 22 21 20 20 19 19 18 18 17 17 17 16 16 16 16 15 16 16 15 15 15 15 15 15 15 15 15 15 15 15 14 14 14 14 14 14 14 14 14 14 14 14
22 21 21 20 19 19 18 18 17 17 16 16 16 16 15 15 15 15 15 15 15 15 15 15 15 15 15 15 15 15 15 14 14 14 14 14 14 14 14 14 14 14 14
22 21 20 20 19 18 18 17 17 17 16 16 15 15 15 15 15 15 14 14 14 14 14 14 14 14 14 14 14 14 14 14 14 14 14 14 14 13 13 14 14 13 13
21 20 20 19 18 18 17 17 17 16 16 15 15 15 15 14 14 14 14 14 14 14 14 14 14 14 14 14 14 14 14 14 13 13 13 13 13 13 13 13 13 13 13
20 20 19 19 18 17 17 16 16 16 15 15 15 14 14 14 14 14 14 14 14 13 13 13 14 14 14 14 14 14 14 13 13 13 13 13 13 13 12 12 12 12 12
20 19 19 18 17 17 16 16 16 15 15 15 14 14 14 14 14 14 14 14 13 13 13 13 13 13 13 13 13 13 13 13 13 12 12 12 12 12 12 12 12 12 12
19 18 18 17 17 16 16 16 15 15 15 14 14 14 14 14 14 14 14 13 13 13 13 13 13 13 13 13 13 13 13 13 12 12 12 12 12 12 12 12 11 11 11
18 18 17 17 16 16 16 15 15 15 14 14 14 14 14 14 14 14 14 14 14 13 13 13 13 12 13 13 13 13 12 12 12 12 12 12 12 11 11 11 11 11 11
18 17 17 16 16 15 15 15 14 14 14 14 14 14 14 14 14 13 13 13 13 13 13 13 12 12 12 12 12 12 12 12 12 11 11 11 11 11 11 11 11 11 11
17 17 16 16 16 15 15 15 14 14 14 14 14 14 14 14 14 13 13 13 13 13 13 13 13 12 12 12 12 12 12 12 11 11 11 11 11 11 11 11 11 11 10
17 16 16 16 15 15 15 15 14 14 14 14 14 14 14 14 13 13 13 13 13 13 13 13 13 12 12 12 12 12 12 11 11 11 11 10 10 10 10 10 10 10 10
Wind_Speed
8 8 7 7 7 6 5 4 2 2 1 1 0 0 0 1 1 2 2 1 0 0 1 1 0 1 1 1 1 1 1 1 1 1 1 1 1 2 2 2 2 3 5
9 9 8 7 7 6 5 4 3 2 1 0 0 0 0 1 1 1 2 1 0 0 0 0 1 1 0 1 1 1 1 1 1 1 1 0 0 1 1 2 2 3 3
10 9 8 7 7 6 5 4 3 3 2 1 0 0 1 1 1 1 2 1 1 1 2 1 0 0 1 1 2 2 2 2 2 1 1 1 1 0 0 0 1 1 1
10 9 8 7 7 7 6 5 3 3 2 2 0 0 1 1 1 1 1 1 1 1 1 1 1 1 0 0 2 2 1 2 2 2 1 1 1 1 1 1 1 0 1
8 9 8 7 7 6 6 6 5 3 3 2 1 1 1 1 2 2 2 2 1 1 2 2 1 1 1 0 1 1 1 1 1 1 1 1 1 1 1 1 1 1 1
8 7 7 6 6 6 5 6 5 4 3 3 2 2 1 1 2 2 2 1 1 2 2 2 2 2 2 1 1 1 1 1 1 2 1 1 1 1 1 2 2 2 1
8 7 7 7 6 5 5 5 5 4 3 3 2 2 1 1 1 1 1 1 1 2 2 3 2 2 1 1 1 1 1 1 1 2 2 1 1 1 1 1 1 1 1
8 7 7 6 5 5 5 5 5 4 4 4 3 2 2 1 1 0 1 1 1 2 2 2 2 2 2 2 1 1 1 0 1 2 1 1 2 1 1 1 1 1 1
9 8 7 7 6 5 4 4 5 4 3 3 4 3 2 1 1 1 1 1 1 1 2 2 2 2 2 2 2 1 1 1 0 1 1 1 2 2 1 1 1 2 2
8 9 8 7 6 6 5 4 5 4 4 4 3 3 2 2 2 1 0 1 1 2 1 1 1 1 2 2 1 1 1 1 1 1 1 1 2 1 1 2 2 2 2
5 8 8 7 6 6 5 4 5 4 4 4 3 2 2 2 2 1 1 0 1 1 1 2 2 2 2 2 2 1 1 1 1 2 1 1 2 2 2 1 2 2 2
6 7 8 6 5 5 4 4 3 4 4 3 3 2 2 2 1 1 1 1 1 1 1 1 1 2 2 2 2 3 2 1 1 2 2 2 2 2 2 2 2 2 2
7 6 6 6 5 5 4 3 3 3 3 3 3 2 2 2 1 0 1 0 0 1 1 1 1 1 2 2 3 2 2 2 1 1 1 2 2 2 3 3 3 2 3
5 5 6 6 5 5 4 3 3 3 3 3 3 3 2 2 1 1 1 1 1 1 1 1 2 2 2 3 3 3 2 1 2 2 1 1 2 2 3 3 2 2 2
6 6 5 5 4 3 3 3 3 3 3 2 3 3 2 1 1 0 1 1 1 1 1 2 2 2 2 3 3 3 2 1 1 1 1 1 3 4 3 3 3 3 2
5 5 5 5 4 3 2 3 3 2 2 2 3 2 2 1 0 0 0 0 1 2 2 2 2 3 3 6 7 5 3 2 1 2 2 1 2 3 3 3 3 3 3
5 5 4 4 3 3 3 2 3 3 3 2 2 2 1 1 1 1 2 2 2 2 2 2 3 2 4 6 7 7 3 2 1 1 2 2 3 3 3 3 3 3 3
5 5 4 4 4 4 4 3 3 3 2 2 1 1 1 1 1 1 1 1 1 1 1 1 2 2 3 5 6 6 3 2 2 1 1 2 2 3 3 3 3 3 3
6 5 4 5 4 4 4 3 3 2 1 1 1 1 1 0 1 1 1 1 1 1 1 1 1 2 3 4 4 4 2 2 2 1 1 1 1 4 4 3 3 3 4
6 5 5 5 5 4 3 2 2 2 1 1 1 1 1 1 1 0 0 1 1 2 1 1 1 1 1 2 3 4 3 2 3 1 0 1 2 2 3 3 3 3 4
5 5 5 5 4 4 3 2 2 1 1 1 1 1 1 1 1 0 1 1 2 2 2 2 1 0 1 2 2 2 2 3 3 3 2 1 1 2 3 3 3 4 4
4 5 4 4 4 4 3 2 2 2 1 1 0 0 1 2 1 0 1 2 3 3 2 1 1 0 0 1 1 2 3 3 3 3 3 2 2 2 3 3 5 5 4
3 3 4 3 3 3 2 2 1 1 1 1 1 1 1 2 1 2 2 3 2 2 1 2 2 1 1 0 1 2 3 4 3 3 4 4 3 3 3 4 4 3 2
3 2 3 2 2 2 2 2 1 1 1 1 1 1 2 2 1 1 1 1 2 2 2 2 2 1 1 2 2 2 2 3 3 3 3 3 4 3 3 3 2 2 2
2 2 2 2 2 2 1 1 1 1 1 2 2 2 2 2 1 1 1 1 1 1 2 2 2 2 2 2 2 2 2 3 3 3 2 2 1 2 2 2 2 2 2
2 2 1 0 1 1 1 0 0 1 2 3 3 3 2 1 1 1 1 1 2 2 2 2 2 1 2 2 2 3 4 5 3 2 2 2 2 3 3 3 2 2 2
Wind_Direction
140 136 134 132 124 117 116 117 116 104 109 112 282 149 133 108 87 108 97 99 342 33 252 339 98 256 220 160 163 157 235 237 179 112 315 295 186 200 199 191 170 168 170
150 149 148 145 142 135 130 135 138 134 151 134 239 207 132 126 109 82 112 116 153 339 298 109 290 295 270 170 199 190 206 243 190 189 217 219 13 271 216 177 179 174 160
155 155 159 160 158 151 150 156 154 149 155 126 169 30 126 103 65 78 86 53 50 42 350 74 313 265 226 178 219 203 210 234 223 208 202 176 192 337 25 166 140 139 150
151 155 161 166 164 160 158 145 138 141 141 139 88 50 86 69 49 33 63 71 63 28 357 12 337 291 296 159 241 195 232 220 230 223 235 225 157 184 207 343 55 103 199
151 152 157 165 164 161 154 146 135 131 139 152 149 94 34 44 47 50 49 47 57 38 17 31 6 345 337 317 297 302 239 236 246 241 232 212 165 188 181 210 216 247 239
139 135 141 142 147 146 142 135 129 130 142 147 132 110 85 60 41 42 62 48 71 48 37 38 26 11 350 342 340 318 277 283 283 286 278 214 222 211 189 205 207 215 235
127 131 134 136 134 134 134 131 128 137 143 145 141 137 143 130 92 35 28 9 45 49 39 31 32 14 356 355 0 358 300 282 279 270 273 274 266 246 197 184 208 219 229
131 132 129 125 128 134 129 125 129 139 150 155 160 153 144 143 130 84 330 13 31 41 38 42 35 7 1 354 14 2 323 331 298 295 318 317 295 278 236 205 200 241 253
137 137 134 132 130 118 116 127 130 140 151 155 154 146 152 162 91 49 19 29 35 31 47 34 22 14 9 1 16 8 351 10 308 306 313 291 285 278 283 259 219 235 252
139 135 135 135 132 129 117 118 134 143 146 138 143 140 151 147 127 118 86 16 16 17 25 7 8 4 14 358 -0 357 357 6 356 331 342 315 307 290 274 256 255 252 241
131 132 132 133 132 129 127 115 108 110 116 119 131 143 140 140 147 137 125 358 358 3 13 349 349 354 356 344 332 317 334 357 339 319 326 325 320 325 302 281 273 266 251
112 118 124 123 123 119 112 113 112 111 108 107 109 103 117 121 124 120 96 49 9 356 355 352 335 336 348 345 331 322 334 351 339 330 337 324 314 320 314 308 290 282 267
99 104 99 102 98 94 85 92 100 95 97 105 107 96 89 85 78 70 107 99 10 349 346 346 331 336 338 341 333 322 319 331 335 333 320 319 319 308 301 298 294 286 281
102 99 98 90 92 95 96 88 77 77 79 87 108 99 87 78 69 45 25 6 15 12 352 352 350 342 342 345 340 329 315 337 344 346 352 345 327 317 308 297 306 293 293
114 103 100 99 94 101 109 92 80 72 73 77 86 86 91 94 81 64 26 5 359 358 10 354 348 353 347 338 336 322 310 307 301 310 316 22 26 16 348 318 315 302 291
115 106 98 98 97 101 110 112 102 98 92 89 81 77 76 64 41 68 46 33 22 12 12 8 8 2 346 2 3 349 323 324 319 324 326 345 27 14 13 345 311 288 274
120 111 110 109 109 116 113 109 104 97 97 89 88 87 90 70 35 22 34 22 16 17 13 11 14 12 11 14 7 353 329 323 345 357 346 333 355 26 354 348 337 308 268
118 121 122 112 94 80 89 92 93 93 99 98 81 63 75 68 44 42 40 6 351 355 0 7 6 1 9 14 6 350 322 319 329 340 348 356 3 345 354 341 337 323 320
102 103 100 95 88 76 76 81 79 85 88 98 85 15 17 30 41 25 10 353 337 334 324 332 355 0 4 13 6 357 317 325 321 322 15 24 355 351 359 349 327 323 322
98 97 97 94 90 81 74 78 80 66 52 57 55 351 340 335 317 303 315 309 296 281 281 300 300 336 359 8 2 350 328 330 319 309 277 355 337 322 335 320 311 313 312
104 105 101 95 87 76 69 72 73 53 39 57 83 13 339 288 268 234 242 256 256 260 257 260 259 12 26 45 18 343 328 322 320 322 317 293 292 277 292 301 297 290 299
107 110 100 95 94 86 73 71 59 45 38 23 43 25 317 299 299 277 255 249 252 257 256 271 277 266 89 61 349 303 288 302 302 308 320 328 291 273 279 290 300 295 302
97 105 116 104 95 91 79 82 54 42 32 20 349 330 307 296 283 245 269 270 271 284 291 278 281 280 283 279 299 282 286 303 295 311 314 311 287 278 272 273 291 298 299
104 101 109 109 99 93 89 96 71 51 32 335 294 270 257 263 303 307 321 335 335 328 323 314 313 319 4 358 336 294 289 300 301 309 309 277 263 264 275 286 288 274 288
104 92 83 100 103 97 101 98 62 351 303 289 275 254 243 225 226 338 337 356 340 265 268 299 329 334 333 325 326 309 315 318 325 325 307 304 306 296 290 283 261 254 261
127 131 132 195 158 140 153 120 139 289 288 282 280 278 266 231 213 196 254 323 261 253 217 214 229 280 277 270 281 280 279 286 300 316 301 308 305 297 294 285 282 275 278
Height
1518 1519 1521 1522 1523 1523 1524 1524 1524 1524 1524 1524 1524 1524 1525 1525 1525 1525 1525 1525 1525 1525 1525 1524 1525 1525 1525 1526 1526 1526 1527 1528 1529 1529 1529 1530 1530 1531 1533 1534 1534 1534 1536
1516 1518 1520 1522 1522 1523 1523 1523 1524 1523 1524 1524 1524 1524 1524 1525 1525 1525 1525 1525 1525 1525 1525 1524 1524 1524 1525 1525 1525 1526 1526 1527 1528 1528 1528 1529 1531 1531 1531 1532 1533 1534 1534
1514 1517 1519 1521 1522 1522 1523 1523 1523 1523 1523 1524 1524 1524 1524 1524 1525 1525 1525 1525 1525 1524 1524 1524 1524 1524 1524 1524 1524 1525 1525 1526 1526 1527 1528 1529 1529 1529 1530 1531 1532 1532 1533
1512 1515 1518 1520 1521 1522 1522 1522 1523 1523 1523 1523 1523 1524 1524 1524 1525 1525 1525 1525 1524 1524 1524 1524 1523 1523 1523 1523 1524 1524 1524 1525 1525 1526 1527 1528 1528 1528 1529 1530 1531 1531 1531
1510 1513 1516 1518 1520 1521 1521 1521 1522 1522 1522 1522 1522 1523 1524 1524 1524 1524 1524 1524 1524 1524 1523 1523 1523 1523 1523 1523 1523 1523 1523 1523 1524 1524 1525 1526 1526 1527 1528 1528 1529 1530 1530
1509 1512 1515 1517 1519 1520 1520 1521 1521 1521 1521 1521 1522 1522 1523 1523 1524 1524 1524 1524 1523 1523 1523 1522 1522 1522 1522 1522 1522 1521 1522 1522 1522 1523 1524 1524 1525 1525 1526 1526 1527 1528 1528
1508 1511 1514 1516 1517 1519 1519 1519 1519 1519 1520 1520 1521 1521 1522 1523 1523 1523 1524 1523 1523 1523 1522 1522 1522 1521 1521 1521 1521 1520 1520 1520 1521 1521 1522 1523 1523 1524 1524 1525 1525 1525 1526
1507 1511 1513 1515 1517 1518 1518 1518 1518 1518 1519 1520 1520 1521 1521 1522 1522 1523 1523 1523 1522 1522 1522 1521 1521 1520 1520 1520 1520 1519 1519 1519 1519 1520 1520 1521 1522 1523 1523 1523 1524 1524 1524
1507 1510 1513 1515 1516 1517 1518 1518 1517 1518 1518 1519 1519 1520 1520 1521 1521 1522 1522 1522 1522 1522 1521 1521 1520 1519 1519 1519 1519 1518 1518 1518 1518 1519 1519 1519 1520 1521 1521 1521 1522 1523 1522
1505 1509 1512 1514 1516 1517 1517 1518 1517 1517 1518 1519 1519 1519 1519 1520 1520 1521 1521 1521 1521 1521 1520 1520 1519 1518 1518 1518 1518 1518 1518 1517 1517 1518 1518 1518 1518 1518 1519 1519 1520 1520 1520
1506 1508 1511 1514 1516 1517 1517 1518 1517 1517 1518 1518 1519 1519 1519 1519 1520 1520 1520 1520 1520 1519 1519 1518 1518 1518 1517 1517 1517 1517 1517 1516 1516 1516 1516 1516 1516 1516 1516 1517 1517 1517 1518
1507 1509 1511 1514 1516 1517 1517 1517 1518 1518 1518 1518 1518 1519 1518 1519 1519 1519 1519 1519 1519 1518 1517 1517 1517 1516 1516 1516 1516 1515 1515 1515 1514 1514 1514 1514 1514 1514 1514 1514 1514 1515 1515
1508 1510 1512 1514 1516 1516 1517 1517 1518 1518 1518 1518 1518 1518 1518 1518 1518 1518 1518 1518 1517 1517 1516 1516 1515 1515 1515 1514 1514 1514 1513 1513 1513 1512 1512 1512 1512 1511 1511 1512 1511 1512 1512
1509 1511 1512 1514 1515 1516 1517 1517 1518 1517 1517 1517 1517 1517 1517 1517 1517 1517 1516 1516 1516 1515 1515 1514 1514 1513 1513 1512 1512 1512 1511 1511 1511 1510 1510 1510 1509 1509 1509 1509 1509 1509 1509
1509 1511 1513 1514 1515 1516 1516 1516 1517 1517 1517 1516 1516 1516 1516 1516 1516 1516 1516 1515 1515 1514 1513 1512 1512 1511 1511 1510 1510 1510 1509 1509 1508 1508 1508 1507 1507 1507 1507 1506 1506 1506 1505
1509 1511 1513 1514 1515 1515 1516 1516 1516 1516 1516 1515 1516 1516 1515 1515 1515 1514 1514 1514 1513 1512 1511 1511 1510 1509 1509 1508 1508 1507 1507 1507 1506 1505 1505 1505 1504 1504 1503 1503 1503 1503 1503
1509 1511 1512 1513 1514 1515 1515 1515 1515 1515 1515 1515 1514 1514 1514 1514 1514 1513 1513 1512 1511 1510 1510 1509 1508 1507 1507 1506 1505 1505 1505 1504 1503 1503 1502 1502 1502 1501 1500 1499 1499 1499 1499
1509 1511 1512 1513 1514 1515 1515 1515 1515 1515 1514 1514 1513 1513 1513 1512 1512 1512 1511 1510 1510 1509 1508 1507 1506 1505 1505 1504 1503 1503 1502 1501 1501 1500 1500 1499 1498 1498 1497 1496 1495 1495 1495
1509 1510 1512 1513 1513 1514 1514 1514 1514 1514 1513 1513 1512 1512 1512 1511 1510 1510 1508 1508 1508 1507 1507 1506 1505 1503 1502 1502 1501 1500 1499 1498 1498 1497 1497 1496 1495 1495 1494 1493 1492 1491 1491
1509 1510 1511 1512 1513 1513 1514 1513 1513 1513 1512 1512 1511 1511 1510 1509 1509 1508 1507 1507 1506 1506 1505 1504 1503 1502 1500 1499 1498 1498 1497 1495 1495 1494 1493 1493 1492 1492 1491 1490 1489 1488 1488
1509 1510 1510 1511 1512 1512 1513 1512 1512 1512 1512 1511 1510 1510 1509 1508 1508 1507 1506 1506 1505 1505 1504 1502 1501 1500 1499 1497 1496 1495 1494 1493 1492 1491 1491 1490 1489 1489 1488 1488 1487 1487 1486
1509 1510 1510 1511 1511 1511 1511 1511 1511 1511 1511 1510 1509 1509 1508 1507 1507 1506 1505 1504 1504 1503 1502 1501 1500 1499 1497 1496 1494 1493 1492 1491 1490 1489 1488 1488 1487 1486 1486 1485 1485 1485 1484
1509 1510 1510 1510 1510 1510 1510 1510 1511 1510 1509 1508 1508 1507 1507 1506 1505 1504 1503 1503 1503 1502 1501 1501 1500 1498 1496 1494 1493 1492 1490 1489 1488 1487 1486 1486 1485 1484 1483 1483 1483 1482 1481
1509 1509 1510 1510 1510 1510 1510 1509 1509 1509 1508 1507 1506 1506 1505 1505 1504 1504 1502 1502 1501 1500 1500 1499 1498 1497 1495 1493 1491 1490 1488 1487 1486 1485 1484 1484 1483 1482 1482 1481 1480 1480 1479
1508 1509 1509 1509 1509 1509 1509 1508 1508 1507 1507 1506 1506 1505 1504 1503 1502 1502 1501 1500 1499 1498 1497 1497 1496 1495 1493 1492 1490 1488 1487 1485 1484 1483 1482 1481 1481 1480 1479 1479 1478 1477 1477
1507 1507 1508 1508 1508 1507 1507 1507 1506 1506 1505 1505 1504 1504 1503 1502 1501 1500 1499 1498 1498 1496 1495 1494 1494 1492 1491 1490 1488 1487 1486 1484 1483 1482 1480 1480 1479 1478 1477 1477 1476 1475 1474